| time (UTC) | temp F | wind direction | speed MPH | gust MPH | rain 1hr in | rain 24hr in | rain mn in | humidity % | barometer mb |
| 20260507203024 | 45 | 223 | 2.0 | 2.0 | 0.00 | 0.03 | 0.03 | 86 | 1014.4 |
| 20260507202507 | 45 | 215 | 0.0 | 0.0 | 0.00 | 0.03 | 0.03 | 86 | 1014.4 |
| 20260507202006 | 45 | 227 | 0.0 | 0.0 | 0.00 | 0.03 | 0.03 | 85 | 1014.4 |
| 20260507201522 | 45 | 211 | 0.0 | 2.0 | 0.00 | 0.03 | 0.03 | 84 | 1014.3 |
| 20260507201004 | 46 | 188 | 0.0 | 2.0 | 0.00 | 0.03 | 0.03 | 83 | 1014.3 |
| 20260507200503 | 46 | 150 | 0.0 | 1.0 | 0.00 | 0.03 | 0.03 | 83 | 1014.4 |
| 20260507200015 | 47 | 251 | 0.0 | 0.0 | 0.00 | 0.03 | 0.03 | 82 | 1014.3 |
| 20260507195505 | 47 | 251 | 0.0 | 0.0 | 0.00 | 0.03 | 0.03 | 81 | 1014.3 |
| 20260507195007 | 48 | 251 | 0.0 | 0.0 | 0.00 | 0.03 | 0.03 | 80 | 1014.3 |
| 20260507194513 | 48 | 251 | 0.0 | 2.0 | 0.00 | 0.03 | 0.03 | 80 | 1014.3 |
| 20260507194005 | 49 | 251 | 0.0 | 2.0 | 0.00 | 0.03 | 0.03 | 78 | 1014.2 |
| 20260507193509 | 49 | 251 | 0.0 | 2.0 | 0.00 | 0.03 | 0.03 | 78 | 1014.2 |
| 20260507193023 | 50 | 240 | 0.0 | 3.0 | 0.00 | 0.03 | 0.03 | 78 | 1014.1 |
| 20260507192509 | 50 | 240 | 1.0 | 3.0 | 0.00 | 0.03 | 0.03 | 78 | 1014.2 |
| 20260507192010 | 50 | 215 | 0.0 | 2.0 | 0.00 | 0.03 | 0.03 | 79 | 1014.2 |
| 20260507191528 | 51 | 227 | 1.0 | 2.0 | 0.00 | 0.03 | 0.03 | 80 | 1014.2 |
| 20260507191003 | 51 | 233 | 0.0 | 2.0 | 0.00 | 0.03 | 0.03 | 81 | 1014.2 |
| 20260507190509 | 51 | 229 | 0.0 | 2.0 | 0.00 | 0.03 | 0.03 | 81 | 1014.1 |
| 20260507190024 | 51 | 229 | 0.0 | 2.0 | 0.00 | 0.03 | 0.03 | 82 | 1014.1 |
| 20260507185503 | 51 | 233 | 0.0 | 2.0 | 0.00 | 0.03 | 0.03 | 82 | 1014.0 |
| 20260507185008 | 51 | 223 | 0.0 | 0.0 | 0.00 | 0.03 | 0.03 | 84 | 1014.0 |
| 20260507184518 | 51 | 234 | 0.0 | 0.0 | 0.00 | 0.03 | 0.03 | 84 | 1014.0 |
| 20260507184006 | 51 | 234 | 0.0 | 0.0 | 0.00 | 0.03 | 0.03 | 82 | 1014.0 |
| 20260507183502 | 51 | 227 | 0.0 | 0.0 | 0.00 | 0.03 | 0.03 | 81 | 1014.0 |
| 20260507183018 | 51 | 228 | 0.0 | 2.0 | 0.00 | 0.03 | 0.03 | 80 | 1013.9 |
| 20260507182509 | 51 | 228 | 0.0 | 2.0 | 0.00 | 0.03 | 0.03 | 80 | 1013.9 |
| 20260507182011 | 51 | 228 | 0.0 | 3.0 | 0.00 | 0.03 | 0.03 | 80 | 1013.9 |
| 20260507181517 | 51 | 213 | 0.0 | 7.0 | 0.00 | 0.03 | 0.03 | 79 | 1014.0 |
| 20260507181012 | 52 | 240 | 2.0 | 7.0 | 0.00 | 0.03 | 0.03 | 78 | 1013.9 |
| 20260507180509 | 52 | 217 | 1.0 | 4.0 | 0.00 | 0.03 | 0.03 | 79 | 1013.9 |
| 20260507180026 | 52 | 208 | 2.0 | 4.0 | 0.00 | 0.03 | 0.03 | 80 | 1013.8 |
| 20260507175511 | 52 | 198 | 1.0 | 4.0 | 0.00 | 0.03 | 0.03 | 83 | 1013.8 |
| 20260507175009 | 52 | 181 | 0.0 | 3.0 | 0.00 | 0.03 | 0.03 | 85 | 1013.7 |
| 20260507174543 | 52 | 155 | 1.0 | 3.0 | 0.00 | 0.03 | 0.03 | 86 | 1013.7 |
| 20260507174007 | 51 | 157 | 1.0 | 3.0 | 0.00 | 0.03 | 0.03 | 86 | 1013.7 |
| 20260507173511 | 51 | 192 | 2.0 | 3.0 | 0.00 | 0.03 | 0.03 | 86 | 1013.7 |
| 20260507173023 | 51 | 219 | 0.0 | 0.0 | 0.00 | 0.03 | 0.03 | 86 | 1013.8 |
| 20260507172506 | 51 | 200 | 0.0 | 0.0 | 0.00 | 0.03 | 0.03 | 86 | 1013.6 |
| 20260507172010 | 51 | 180 | 0.0 | 0.0 | 0.00 | 0.03 | 0.03 | 86 | 1013.7 |
| 20260507171530 | 51 | 175 | 0.0 | 0.0 | 0.01 | 0.03 | 0.03 | 86 | 1013.8 |
| 20260507171009 | 51 | 153 | 0.0 | 0.0 | 0.03 | 0.03 | 0.03 | 86 | 1013.8 |
| 20260507170506 | 51 | 128 | 0.0 | 0.0 | 0.03 | 0.03 | 0.03 | 85 | 1013.8 |
| 20260507170025 | 51 | 124 | 0.0 | 0.0 | 0.03 | 0.03 | 0.03 | 84 | 1013.8 |
| 20260507165516 | 51 | 239 | 0.0 | 0.0 | 0.03 | 0.03 | 0.03 | 85 | 1013.8 |
| 20260507165012 | 50 | 239 | 0.0 | 2.0 | 0.03 | 0.03 | 0.03 | 85 | 1013.9 |
| 20260507164524 | 50 | 246 | 0.0 | 2.0 | 0.03 | 0.03 | 0.03 | 85 | 1014.0 |
| 20260507164009 | 50 | 232 | 0.0 | 2.0 | 0.03 | 0.03 | 0.03 | 86 | 1014.0 |
| 20260507163511 | 50 | 256 | 0.0 | 2.0 | 0.03 | 0.03 | 0.03 | 86 | 1014.0 |
| 20260507163020 | 50 | 249 | 0.0 | 4.0 | 0.03 | 0.03 | 0.03 | 83 | 1014.0 |
| 20260507162506 | 50 | 222 | 0.0 | 6.0 | 0.03 | 0.03 | 0.03 | 82 | 1013.9 |
| 20260507162008 | 51 | 214 | 2.0 | 9.0 | 0.03 | 0.03 | 0.03 | 81 | 1014.0 |
| 20260507161522 | 51 | 225 | 4.0 | 8.0 | 0.02 | 0.02 | 0.02 | 79 | 1014.0 |
| 20260507161010 | 52 | 213 | 3.0 | 10.0 | 0.00 | 0.00 | 0.00 | 75 | 1013.9 |
| 20260507160507 | 52 | 233 | 2.0 | 10.0 | 0.00 | 0.00 | 0.00 | 72 | 1013.7 |
| 20260507160024 | 53 | 196 | 5.0 | 12.0 | 0.00 | 0.00 | 0.00 | 71 | 1013.6 |
| 20260507155506 | 53 | 218 | 5.0 | 11.0 | 0.00 | 0.00 | 0.00 | 70 | 1013.6 |
| 20260507155010 | 53 | 195 | 4.0 | 14.0 | 0.00 | 0.00 | 0.00 | 72 | 1013.6 |
| 20260507154528 | 53 | 176 | 9.0 | 14.0 | 0.00 | 0.00 | 0.00 | 71 | 1013.6 |
| 20260507154010 | 53 | 166 | 9.0 | 14.0 | 0.00 | 0.00 | 0.00 | 70 | 1013.6 |
| 20260507153505 | 53 | 196 | 5.0 | 11.0 | 0.00 | 0.00 | 0.00 | 70 | 1013.6 |
| 20260507153029 | 54 | 178 | 5.0 | 13.0 | 0.00 | 0.00 | 0.00 | 70 | 1013.6 |
| 20260507152508 | 54 | 178 | 9.0 | 13.0 | 0.00 | 0.00 | 0.00 | 68 | 1013.6 |
| 20260507152008 | 54 | 159 | 5.0 | 13.0 | 0.00 | 0.00 | 0.00 | 68 | 1013.7 |
| 20260507151518 | 54 | 162 | 8.0 | 16.0 | 0.00 | 0.00 | 0.00 | 70 | 1013.7 |
| 20260507151007 | 54 | 176 | 6.0 | 17.0 | 0.00 | 0.00 | 0.00 | 69 | 1013.6 |
| 20260507150506 | 54 | 198 | 10.0 | 17.0 | 0.00 | 0.00 | 0.00 | 68 | 1013.6 |
| 20260507150023 | 54 | 173 | 9.0 | 17.0 | 0.00 | 0.00 | 0.00 | 69 | 1013.6 |
| 20260507145507 | 54 | 176 | 9.0 | 15.0 | 0.00 | 0.00 | 0.00 | 69 | 1013.7 |
| 20260507145016 | 54 | 169 | 9.0 | 11.0 | 0.00 | 0.00 | 0.00 | 68 | 1013.7 |
| 20260507144521 | 54 | 159 | 7.0 | 12.0 | 0.00 | 0.00 | 0.00 | 69 | 1013.7 |
| 20260507144010 | 54 | 181 | 7.0 | 12.0 | 0.00 | 0.00 | 0.00 | 69 | 1013.8 |
| 20260507143508 | 54 | 194 | 8.0 | 12.0 | 0.00 | 0.00 | 0.00 | 70 | 1013.9 |
| 20260507143027 | 53 | 183 | 7.0 | 12.0 | 0.00 | 0.00 | 0.00 | 69 | 1013.9 |
| 20260507142508 | 53 | 170 | 7.0 | 12.0 | 0.00 | 0.00 | 0.00 | 69 | 1014.0 |
| 20260507142009 | 53 | 192 | 6.0 | 12.0 | 0.00 | 0.00 | 0.00 | 67 | 1014.0 |
| 20260507141530 | 53 | 160 | 6.0 | 11.0 | 0.00 | 0.00 | 0.00 | 67 | 1013.9 |
| 20260507141013 | 53 | 135 | 5.0 | 9.0 | 0.00 | 0.00 | 0.00 | 68 | 1013.9 |
| 20260507140509 | 53 | 161 | 4.0 | 9.0 | 0.00 | 0.00 | 0.00 | 68 | 1014.0 |
| 20260507140035 | 53 | 183 | 6.0 | 11.0 | 0.00 | 0.00 | 0.00 | 67 | 1014.0 |
| 20260507135508 | 54 | 186 | 7.0 | 12.0 | 0.00 | 0.00 | 0.00 | 65 | 1014.0 |
| 20260507135011 | 54 | 174 | 7.0 | 12.0 | 0.00 | 0.00 | 0.00 | 66 | 1014.0 |
| 20260507134524 | 54 | 188 | 7.0 | 15.0 | 0.00 | 0.00 | 0.00 | 66 | 1014.0 |
| 20260507134009 | 55 | 180 | 7.0 | 14.0 | 0.00 | 0.00 | 0.00 | 65 | 1014.0 |
| 20260507133509 | 55 | 192 | 6.0 | 13.0 | 0.00 | 0.00 | 0.00 | 65 | 1014.1 |
| 20260507133024 | 55 | 180 | 10.0 | 13.0 | 0.00 | 0.00 | 0.00 | 63 | 1014.1 |
| 20260507132509 | 56 | 171 | 9.0 | 13.0 | 0.00 | 0.00 | 0.00 | 62 | 1014.2 |
| 20260507132013 | 56 | 215 | 8.0 | 19.0 | 0.00 | 0.00 | 0.00 | 63 | 1014.1 |
| 20260507131541 | 56 | 178 | 9.0 | 19.0 | 0.00 | 0.00 | 0.00 | 62 | 1014.1 |
| 20260507131010 | 57 | 169 | 9.0 | 18.0 | 0.00 | 0.00 | 0.00 | 62 | 1014.1 |
| 20260507130508 | 57 | 173 | 6.0 | 16.0 | 0.00 | 0.00 | 0.00 | 59 | 1014.1 |
| 20260507130030 | 57 | 174 | 7.0 | 17.0 | 0.00 | 0.00 | 0.00 | 60 | 1013.9 |
| 20260507125509 | 57 | 213 | 8.0 | 18.0 | 0.00 | 0.00 | 0.00 | 63 | 1014.0 |
| 20260507125005 | 57 | 209 | 13.0 | 18.0 | 0.00 | 0.00 | 0.00 | 60 | 1013.9 |
| 20260507124524 | 57 | 164 | 12.0 | 19.0 | 0.00 | 0.00 | 0.00 | 63 | 1014.0 |
| 20260507124010 | 56 | 177 | 11.0 | 19.0 | 0.00 | 0.00 | 0.00 | 66 | 1014.0 |
| 20260507123510 | 55 | 180 | 10.0 | 17.0 | 0.00 | 0.00 | 0.00 | 65 | 1014.1 |
| 20260507123033 | 55 | 190 | 9.0 | 18.0 | 0.00 | 0.00 | 0.00 | 67 | 1014.1 |
| 20260507122517 | 54 | 183 | 9.0 | 18.0 | 0.00 | 0.00 | 0.00 | 68 | 1014.1 |
| 20260507122011 | 54 | 163 | 12.0 | 18.0 | 0.00 | 0.00 | 0.00 | 68 | 1014.1 |
| 20260507121526 | 54 | 198 | 8.0 | 20.0 | 0.00 | 0.00 | 0.00 | 68 | 1014.1 |
| 20260507121011 | 54 | 165 | 10.0 | 20.0 | 0.00 | 0.00 | 0.00 | 67 | 1014.2 |
| 20260507120510 | 54 | 190 | 8.0 | 12.0 | 0.00 | 0.00 | 0.00 | 67 | 1014.3 |
| 20260507120031 | 54 | 178 | 3.0 | 10.0 | 0.00 | 0.00 | 0.00 | 65 | 1014.4 |
| 20260507115509 | 54 | 169 | 3.0 | 12.0 | 0.00 | 0.00 | 0.00 | 66 | 1014.4 |
| 20260507115012 | 54 | 192 | 5.0 | 13.0 | 0.00 | 0.00 | 0.00 | 65 | 1014.5 |
| 20260507114525 | 54 | 185 | 5.0 | 18.0 | 0.00 | 0.00 | 0.00 | 67 | 1014.6 |
| 20260507114015 | 54 | 181 | 8.0 | 18.0 | 0.00 | 0.00 | 0.00 | 67 | 1014.6 |
| 20260507113508 | 53 | 196 | 8.0 | 14.0 | 0.00 | 0.00 | 0.00 | 67 | 1014.6 |
| 20260507113055 | 53 | 184 | 6.0 | 14.0 | 0.00 | 0.00 | 0.00 | 67 | 1014.6 |
| 20260507112516 | 53 | 198 | 8.0 | 14.0 | 0.00 | 0.00 | 0.00 | 67 | 1014.6 |
| 20260507112013 | 53 | 192 | 6.0 | 12.0 | 0.00 | 0.00 | 0.00 | 69 | 1014.5 |
| 20260507111527 | 52 | 219 | 5.0 | 12.0 | 0.00 | 0.00 | 0.00 | 68 | 1014.6 |
| 20260507111010 | 52 | 180 | 4.0 | 11.0 | 0.00 | 0.00 | 0.00 | 68 | 1014.6 |
| 20260507110510 | 52 | 170 | 6.0 | 11.0 | 0.00 | 0.00 | 0.00 | 67 | 1014.6 |
| 20260507110015 | 52 | 209 | 7.0 | 11.0 | 0.00 | 0.00 | 0.00 | 69 | 1014.5 |
| 20260507105504 | 52 | 229 | 4.0 | 9.0 | 0.00 | 0.00 | 0.00 | 68 | 1014.6 |
| 20260507105004 | 52 | 190 | 3.0 | 8.0 | 0.00 | 0.00 | 0.00 | 70 | 1014.6 |
| 20260507104519 | 52 | 215 | 3.0 | 8.0 | 0.00 | 0.00 | 0.00 | 70 | 1014.6 |
| 20260507104003 | 51 | 179 | 4.0 | 14.0 | 0.00 | 0.00 | 0.00 | 72 | 1014.7 |
| 20260507103503 | 51 | 184 | 6.0 | 14.0 | 0.00 | 0.00 | 0.00 | 71 | 1014.7 |
| 20260507103004 | 51 | 180 | 7.0 | 17.0 | 0.00 | 0.00 | 0.00 | 71 | 1014.8 |
| 20260507102503 | 51 | 192 | 10.0 | 17.0 | 0.00 | 0.00 | 0.00 | 70 | 1014.8 |
| 20260507102006 | 51 | 192 | 9.0 | 12.0 | 0.00 | 0.00 | 0.00 | 73 | 1014.7 |
| 20260507101507 | 51 | 181 | 3.0 | 13.0 | 0.00 | 0.00 | 0.00 | 73 | 1014.8 |
| 20260507101007 | 51 | 197 | 8.0 | 15.0 | 0.00 | 0.00 | 0.00 | 72 | 1014.7 |
| 20260507100503 | 51 | 175 | 8.0 | 15.0 | 0.00 | 0.00 | 0.00 | 71 | 1014.7 |
| 20260507100009 | 51 | 198 | 7.0 | 13.0 | 0.00 | 0.00 | 0.00 | 72 | 1014.7 |
| 20260507095506 | 50 | 182 | 7.0 | 13.0 | 0.00 | 0.00 | 0.00 | 72 | 1014.8 |
| 20260507095007 | 50 | 162 | 4.0 | 7.0 | 0.00 | 0.00 | 0.00 | 74 | 1014.8 |
| 20260507094504 | 50 | 207 | 3.0 | 10.0 | 0.00 | 0.00 | 0.00 | 75 | 1014.8 |
| 20260507094005 | 49 | 182 | 6.0 | 12.0 | 0.00 | 0.00 | 0.00 | 77 | 1014.8 |
| 20260507093504 | 49 | 188 | 7.0 | 13.0 | 0.00 | 0.00 | 0.00 | 76 | 1014.7 |
| 20260507093027 | 48 | 198 | 5.0 | 13.0 | 0.00 | 0.00 | 0.00 | 76 | 1014.7 |
| 20260507092509 | 48 | 185 | 7.0 | 10.0 | 0.00 | 0.00 | 0.00 | 77 | 1014.7 |
| 20260507092002 | 48 | 192 | 4.0 | 11.0 | 0.00 | 0.00 | 0.00 | 78 | 1014.7 |
| 20260507091505 | 47 | 195 | 6.0 | 10.0 | 0.00 | 0.00 | 0.00 | 79 | 1014.7 |
| 20260507091004 | 47 | 191 | 4.0 | 10.0 | 0.00 | 0.00 | 0.00 | 78 | 1014.7 |
| 20260507090507 | 47 | 190 | 5.0 | 10.0 | 0.00 | 0.00 | 0.00 | 79 | 1014.7 |
| 20260507090009 | 47 | 286 | 3.0 | 10.0 | 0.00 | 0.00 | 0.00 | 79 | 1014.7 |
| 20260507085503 | 47 | 239 | 4.0 | 8.0 | 0.00 | 0.00 | 0.00 | 79 | 1014.7 |
| 20260507085003 | 47 | 228 | 3.0 | 7.0 | 0.00 | 0.00 | 0.00 | 79 | 1014.6 |
| 20260507084534 | 47 | 265 | 2.0 | 7.0 | 0.00 | 0.00 | 0.00 | 79 | 1014.6 |
| 20260507084004 | 46 | 234 | 2.0 | 6.0 | 0.00 | 0.00 | 0.00 | 79 | 1014.6 |
| 20260507083503 | 46 | 209 | 2.0 | 8.0 | 0.00 | 0.00 | 0.00 | 79 | 1014.5 |
| 20260507083019 | 46 | 229 | 2.0 | 10.0 | 0.00 | 0.00 | 0.00 | 79 | 1014.5 |
| 20260507082503 | 46 | 235 | 2.0 | 10.0 | 0.00 | 0.00 | 0.00 | 79 | 1014.5 |
| 20260507082007 | 46 | 259 | 1.0 | 8.0 | 0.00 | 0.00 | 0.00 | 80 | 1014.5 |
| 20260507081508 | 46 | 230 | 1.0 | 3.0 | 0.00 | 0.00 | 0.00 | 79 | 1014.5 |
| 20260507081007 | 46 | 265 | 1.0 | 3.0 | 0.00 | 0.00 | 0.00 | 80 | 1014.6 |
| 20260507080505 | 46 | 232 | 1.0 | 5.0 | 0.00 | 0.00 | 0.00 | 79 | 1014.6 |
| 20260507080006 | 46 | 224 | 2.0 | 6.0 | 0.00 | 0.00 | 0.00 | 80 | 1014.7 |
| 20260507075503 | 46 | 267 | 2.0 | 7.0 | 0.00 | 0.00 | 0.00 | 80 | 1014.7 |
| 20260507075003 | 46 | 234 | 3.0 | 7.0 | 0.00 | 0.00 | 0.00 | 80 | 1014.7 |
| 20260507074510 | 45 | 240 | 3.0 | 7.0 | 0.00 | 0.00 | 0.00 | 80 | 1014.7 |
| 20260507074004 | 45 | 271 | 1.0 | 4.0 | 0.00 | 0.00 | 0.00 | 80 | 1014.6 |
| 20260507073503 | 45 | 201 | 1.0 | 8.0 | 0.00 | 0.00 | 0.00 | 80 | 1014.6 |
| 20260507073020 | 45 | 215 | 4.0 | 8.0 | 0.00 | 0.00 | 0.00 | 80 | 1014.6 |
| 20260507072504 | 45 | 230 | 2.0 | 4.0 | 0.00 | 0.00 | 0.00 | 80 | 1014.6 |
| 20260507072003 | 45 | 238 | 1.0 | 4.0 | 0.00 | 0.00 | 0.00 | 80 | 1014.5 |
| 20260507071519 | 45 | 181 | 2.0 | 5.0 | 0.00 | 0.00 | 0.00 | 80 | 1014.6 |
| 20260507071009 | 45 | 169 | 2.0 | 5.0 | 0.00 | 0.00 | 0.00 | 80 | 1014.4 |
| 20260507070504 | 45 | 140 | 1.0 | 3.0 | 0.00 | 0.00 | 0.00 | 81 | 1014.4 |
| 20260507070019 | 44 | 219 | 1.0 | 3.0 | 0.00 | 0.00 | 0.00 | 81 | 1014.4 |
| 20260507065502 | 44 | 194 | 1.0 | 5.0 | 0.00 | 0.00 | 0.00 | 82 | 1014.4 |
| 20260507065003 | 44 | 234 | 1.0 | 6.0 | 0.00 | 0.00 | 0.00 | 81 | 1014.3 |
| 20260507064512 | 44 | 200 | 2.0 | 6.0 | 0.00 | 0.00 | 0.00 | 81 | 1014.4 |
| 20260507064004 | 44 | 207 | 3.0 | 7.0 | 0.00 | 0.00 | 0.00 | 81 | 1014.4 |
| 20260507063506 | 44 | 178 | 3.0 | 8.0 | 0.00 | 0.00 | 0.00 | 81 | 1014.4 |
| 20260507063008 | 44 | 194 | 4.0 | 8.0 | 0.00 | 0.00 | 0.00 | 81 | 1014.4 |
| 20260507062504 | 44 | 173 | 3.0 | 8.0 | 0.00 | 0.00 | 0.00 | 81 | 1014.4 |
| 20260507062006 | 44 | 213 | 4.0 | 8.0 | 0.00 | 0.00 | 0.00 | 81 | 1014.3 |
| 20260507061516 | 44 | 197 | 3.0 | 8.0 | 0.00 | 0.00 | 0.00 | 81 | 1014.3 |
| 20260507061010 | 44 | 191 | 2.0 | 10.0 | 0.00 | 0.00 | 0.00 | 81 | 1014.3 |
| 20260507060506 | 44 | 215 | 4.0 | 10.0 | 0.00 | 0.00 | 0.00 | 82 | 1014.4 |
| 20260507060032 | 44 | 241 | 4.0 | 10.0 | 0.00 | 0.00 | 0.00 | 82 | 1014.2 |
| 20260507055503 | 44 | 193 | 5.0 | 10.0 | 0.00 | 0.00 | 0.00 | 81 | 1014.3 |
| 20260507055005 | 44 | 209 | 4.0 | 10.0 | 0.00 | 0.00 | 0.00 | 81 | 1014.1 |
| 20260507054532 | 44 | 223 | 3.0 | 8.0 | 0.00 | 0.00 | 0.00 | 82 | 1014.1 |
| 20260507054002 | 44 | 213 | 3.0 | 9.0 | 0.00 | 0.00 | 0.00 | 82 | 1014.0 |
| 20260507053503 | 44 | 207 | 3.0 | 9.0 | 0.00 | 0.00 | 0.00 | 82 | 1014.0 |
| 20260507053008 | 44 | 232 | 4.0 | 7.0 | 0.00 | 0.00 | 0.00 | 81 | 1014.1 |
| 20260507052504 | 44 | 192 | 1.0 | 7.0 | 0.00 | 0.00 | 0.00 | 82 | 1014.1 |
| 20260507052004 | 43 | 231 | 2.0 | 7.0 | 0.00 | 0.00 | 0.00 | 82 | 1014.1 |
| 20260507051516 | 43 | 196 | 1.0 | 7.0 | 0.00 | 0.00 | 0.00 | 82 | 1014.0 |
| 20260507051011 | 43 | 186 | 2.0 | 7.0 | 0.00 | 0.00 | 0.00 | 82 | 1014.0 |
| 20260507050507 | 43 | 239 | 3.0 | 10.0 | 0.00 | 0.00 | 0.00 | 82 | 1014.0 |
| 20260507050035 | 43 | 217 | 4.0 | 10.0 | 0.00 | 0.00 | 0.00 | 82 | 1014.0 |
| 20260507045508 | 43 | 230 | 1.0 | 8.0 | 0.00 | 0.00 | 0.00 | 82 | 1013.9 |
| 20260507045008 | 43 | 207 | 2.0 | 10.0 | 0.00 | 0.00 | 0.00 | 82 | 1014.0 |
| 20260507044516 | 43 | 173 | 5.0 | 10.0 | 0.00 | 0.00 | 0.00 | 82 | 1013.9 |
| 20260507044005 | 43 | 223 | 2.0 | 10.0 | 0.00 | 0.00 | 0.00 | 82 | 1014.0 |
| 20260507043508 | 43 | 203 | 3.0 | 11.0 | 0.00 | 0.00 | 0.00 | 82 | 1014.0 |
| 20260507043024 | 43 | 167 | 3.0 | 11.0 | 0.00 | 0.00 | 0.00 | 83 | 1013.9 |
| 20260507042503 | 43 | 239 | 2.0 | 6.0 | 0.00 | 0.00 | 0.00 | 83 | 1014.0 |
| 20260507042004 | 43 | 179 | 2.0 | 5.0 | 0.00 | 0.00 | 0.00 | 83 | 1014.0 |
| 20260507041514 | 43 | 198 | 2.0 | 10.0 | 0.00 | 0.00 | 0.00 | 83 | 1014.0 |
| 20260507041006 | 43 | 209 | 4.0 | 10.0 | 0.00 | 0.00 | 0.00 | 84 | 1014.0 |
| 20260507040504 | 43 | 235 | 2.0 | 8.0 | 0.00 | 0.00 | 0.00 | 84 | 1014.1 |
| 20260507040022 | 43 | 173 | 3.0 | 7.0 | 0.00 | 0.00 | 0.00 | 84 | 1014.1 |
| 20260507035507 | 43 | 280 | 0.0 | 1.0 | 0.00 | 0.00 | 0.00 | 85 | 1014.1 |
| 20260507035003 | 43 | 275 | 0.0 | 6.0 | 0.00 | 0.00 | 0.00 | 85 | 1014.1 |
| 20260507034526 | 43 | 171 | 0.0 | 6.0 | 0.00 | 0.00 | 0.00 | 84 | 1014.1 |
| 20260507034005 | 43 | 196 | 0.0 | 6.0 | 0.00 | 0.00 | 0.00 | 85 | 1014.1 |
| 20260507033501 | 43 | 11 | 0.0 | 2.0 | 0.00 | 0.00 | 0.00 | 85 | 1014.0 |
| 20260507033007 | 42 | 11 | 0.0 | 2.0 | 0.00 | 0.00 | 0.00 | 86 | 1014.0 |
| 20260507032504 | 42 | 342 | 0.0 | 2.0 | 0.00 | 0.00 | 0.00 | 86 | 1014.1 |
| 20260507032004 | 42 | 336 | 0.0 | 2.0 | 0.00 | 0.00 | 0.00 | 86 | 1014.0 |
| 20260507031510 | 43 | 346 | 0.0 | 0.0 | 0.00 | 0.00 | 0.00 | 86 | 1014.1 |
| 20260507031003 | 43 | 292 | 0.0 | 3.0 | 0.00 | 0.00 | 0.00 | 86 | 1014.1 |
| 20260507030503 | 43 | 267 | 0.0 | 3.0 | 0.00 | 0.00 | 0.00 | 86 | 1014.1 |
| 20260507030007 | 43 | 350 | 1.0 | 2.0 | 0.00 | 0.00 | 0.00 | 85 | 1014.1 |
| 20260507025505 | 43 | 47 | 0.0 | 3.0 | 0.00 | 0.00 | 0.00 | 85 | 1014.1 |
| 20260507025013 | 43 | 150 | 1.0 | 4.0 | 0.00 | 0.00 | 0.00 | 85 | 1014.0 |
| 20260507024510 | 43 | 171 | 2.0 | 6.0 | 0.00 | 0.00 | 0.00 | 85 | 1014.1 |
| 20260507024004 | 43 | 173 | 3.0 | 6.0 | 0.00 | 0.00 | 0.00 | 85 | 1014.1 |
| 20260507023506 | 43 | 188 | 2.0 | 11.0 | 0.00 | 0.00 | 0.00 | 85 | 1014.1 |
| 20260507023005 | 43 | 161 | 5.0 | 11.0 | 0.00 | 0.00 | 0.00 | 85 | 1014.2 |
| 20260507022503 | 43 | 198 | 4.0 | 9.0 | 0.00 | 0.00 | 0.00 | 85 | 1014.1 |
| 20260507022002 | 43 | 148 | 3.0 | 9.0 | 0.00 | 0.00 | 0.00 | 85 | 1014.1 |
| 20260507021517 | 43 | 149 | 5.0 | 15.0 | 0.00 | 0.00 | 0.00 | 85 | 1014.0 |
| 20260507021004 | 43 | 184 | 6.0 | 15.0 | 0.00 | 0.00 | 0.00 | 85 | 1014.0 |
| 20260507020503 | 43 | 159 | 8.0 | 14.0 | 0.00 | 0.00 | 0.00 | 85 | 1014.0 |
| 20260507020019 | 43 | 163 | 9.0 | 14.0 | 0.00 | 0.00 | 0.00 | 85 | 1014.0 |
| 20260507015506 | 43 | 146 | 7.0 | 13.0 | 0.00 | 0.00 | 0.00 | 85 | 1014.0 |
| 20260507015001 | 43 | 191 | 5.0 | 13.0 | 0.00 | 0.00 | 0.00 | 84 | 1014.1 |
| 20260507014520 | 43 | 205 | 7.0 | 15.0 | 0.00 | 0.00 | 0.00 | 84 | 1014.1 |
| 20260507014013 | 43 | 173 | 8.0 | 15.0 | 0.00 | 0.00 | 0.00 | 84 | 1014.1 |
| 20260507013502 | 43 | 139 | 7.0 | 16.0 | 0.00 | 0.00 | 0.00 | 84 | 1014.1 |
| 20260507013014 | 43 | 155 | 10.0 | 16.0 | 0.00 | 0.00 | 0.00 | 84 | 1014.1 |
| 20260507012506 | 43 | 163 | 9.0 | 14.0 | 0.00 | 0.00 | 0.00 | 84 | 1014.1 |
| 20260507012007 | 43 | 169 | 7.0 | 15.0 | 0.00 | 0.00 | 0.00 | 84 | 1014.1 |
| 20260507011516 | 43 | 186 | 8.0 | 15.0 | 0.00 | 0.00 | 0.00 | 84 | 1014.2 |
| 20260507011001 | 43 | 208 | 4.0 | 15.0 | 0.00 | 0.00 | 0.00 | 84 | 1014.2 |
| 20260507010510 | 43 | 188 | 5.0 | 11.0 | 0.00 | 0.00 | 0.00 | 85 | 1014.2 |
| 20260507010013 | 43 | 180 | 5.0 | 12.0 | 0.00 | 0.00 | 0.00 | 84 | 1014.2 |
| 20260507005506 | 43 | 182 | 3.0 | 12.0 | 0.00 | 0.00 | 0.00 | 85 | 1014.3 |
| 20260507005007 | 43 | 142 | 5.0 | 7.0 | 0.00 | 0.00 | 0.00 | 85 | 1014.3 |
| 20260507004516 | 43 | 131 | 4.0 | 7.0 | 0.00 | 0.00 | 0.00 | 85 | 1014.3 |
| 20260507004002 | 43 | 13 | 0.0 | 6.0 | 0.00 | 0.00 | 0.00 | 85 | 1014.4 |
| 20260507003506 | 43 | 173 | 0.0 | 8.0 | 0.00 | 0.00 | 0.00 | 85 | 1014.4 |
| 20260507003020 | 43 | 218 | 4.0 | 8.0 | 0.00 | 0.00 | 0.00 | 85 | 1014.4 |
| 20260507002502 | 43 | 167 | 3.0 | 7.0 | 0.00 | 0.00 | 0.00 | 84 | 1014.4 |
| 20260507002008 | 43 | 125 | 4.0 | 9.0 | 0.00 | 0.00 | 0.00 | 84 | 1014.5 |
| 20260507001519 | 43 | 205 | 5.0 | 9.0 | 0.00 | 0.00 | 0.00 | 84 | 1014.5 |
| 20260507001010 | 43 | 154 | 3.0 | 8.0 | 0.00 | 0.00 | 0.00 | 84 | 1014.6 |
| 20260507000503 | 43 | 167 | 3.0 | 9.0 | 0.00 | 0.00 | 0.00 | 83 | 1014.7 |
| 20260507000015 | 43 | 170 | 4.0 | 10.0 | 0.00 | 0.00 | 0.00 | 83 | 1014.6 |
| 20260506235501 | 43 | 187 | 3.0 | 10.0 | 0.00 | 0.00 | 0.00 | 83 | 1014.6 |
| 20260506235002 | 43 | 188 | 4.0 | 10.0 | 0.00 | 0.00 | 0.00 | 83 | 1014.6 |
| 20260506234508 | 43 | 192 | 5.0 | 11.0 | 0.00 | 0.00 | 0.00 | 82 | 1014.5 |
| 20260506234006 | 43 | 196 | 6.0 | 11.0 | 0.00 | 0.00 | 0.00 | 82 | 1014.5 |
| 20260506233506 | 43 | 179 | 6.0 | 11.0 | 0.00 | 0.00 | 0.00 | 82 | 1014.5 |
| 20260506233008 | 44 | 99 | 7.0 | 11.0 | 0.00 | 0.00 | 0.00 | 81 | 1014.5 |
| 20260506232504 | 44 | 163 | 5.0 | 11.0 | 0.00 | 0.00 | 0.00 | 81 | 1014.6 |
| 20260506232008 | 44 | 170 | 6.0 | 10.0 | 0.00 | 0.00 | 0.00 | 81 | 1014.6 |
| 20260506231524 | 44 | 195 | 5.0 | 10.0 | 0.00 | 0.00 | 0.00 | 80 | 1014.6 |
| 20260506231004 | 44 | 196 | 4.0 | 9.0 | 0.00 | 0.00 | 0.00 | 80 | 1014.5 |
| 20260506230507 | 44 | 157 | 5.0 | 12.0 | 0.00 | 0.00 | 0.00 | 80 | 1014.6 |
| 20260506230026 | 44 | 123 | 6.0 | 12.0 | 0.00 | 0.00 | 0.00 | 79 | 1014.7 |
| 20260506225504 | 44 | 174 | 3.0 | 10.0 | 0.00 | 0.00 | 0.00 | 78 | 1014.6 |
| 20260506225005 | 45 | 102 | 5.0 | 10.0 | 0.00 | 0.00 | 0.00 | 78 | 1014.6 |
| 20260506224526 | 45 | 186 | 5.0 | 10.0 | 0.00 | 0.00 | 0.00 | 78 | 1014.6 |
| 20260506224004 | 45 | 205 | 4.0 | 9.0 | 0.00 | 0.00 | 0.00 | 79 | 1014.6 |
| 20260506223506 | 45 | 161 | 5.0 | 12.0 | 0.00 | 0.00 | 0.00 | 79 | 1014.5 |
| 20260506223016 | 45 | 161 | 6.0 | 12.0 | 0.00 | 0.00 | 0.00 | 79 | 1014.5 |
| 20260506222505 | 45 | 192 | 4.0 | 8.0 | 0.00 | 0.00 | 0.00 | 79 | 1014.5 |
| 20260506222008 | 45 | 227 | 3.0 | 8.0 | 0.00 | 0.00 | 0.00 | 79 | 1014.5 |
| 20260506221518 | 45 | 138 | 4.0 | 8.0 | 0.00 | 0.00 | 0.00 | 78 | 1014.6 |
| 20260506221005 | 45 | 139 | 3.0 | 7.0 | 0.00 | 0.00 | 0.00 | 78 | 1014.6 |
| 20260506220507 | 45 | 128 | 3.0 | 11.0 | 0.00 | 0.00 | 0.00 | 78 | 1014.6 |
| 20260506220025 | 45 | 190 | 5.0 | 10.0 | 0.00 | 0.00 | 0.00 | 78 | 1014.6 |
| 20260506215508 | 45 | 172 | 4.0 | 11.0 | 0.00 | 0.00 | 0.00 | 78 | 1014.6 |
| 20260506215012 | 45 | 198 | 5.0 | 11.0 | 0.00 | 0.00 | 0.00 | 78 | 1014.6 |
| 20260506214511 | 45 | 194 | 1.0 | 7.0 | 0.00 | 0.00 | 0.00 | 78 | 1014.6 |
| 20260506214006 | 45 | 148 | 3.0 | 7.0 | 0.00 | 0.00 | 0.00 | 78 | 1014.5 |
| 20260506213511 | 45 | 167 | 2.0 | 6.0 | 0.00 | 0.00 | 0.00 | 77 | 1014.5 |
| 20260506213010 | 45 | 173 | 2.0 | 8.0 | 0.00 | 0.00 | 0.00 | 77 | 1014.5 |
| 20260506212505 | 45 | 197 | 2.0 | 8.0 | 0.00 | 0.00 | 0.00 | 77 | 1014.5 |
| 20260506212008 | 46 | 128 | 3.0 | 8.0 | 0.00 | 0.00 | 0.00 | 77 | 1014.5 |
| 20260506211506 | 46 | 146 | 3.0 | 8.0 | 0.00 | 0.00 | 0.00 | 76 | 1014.5 |
| 20260506211006 | 46 | 102 | 5.0 | 8.0 | 0.00 | 0.00 | 0.00 | 76 | 1014.6 |
| 20260506210505 | 46 | 123 | 3.0 | 8.0 | 0.00 | 0.00 | 0.00 | 76 | 1014.6 |
| 20260506210023 | 46 | 153 | 2.0 | 10.0 | 0.00 | 0.00 | 0.00 | 73 | 1014.6 |
| 20260506205505 | 46 | 123 | 6.0 | 10.0 | 0.00 | 0.00 | 0.00 | 73 | 1014.5 |
| 20260506205003 | 46 | 161 | 2.0 | 9.0 | 0.00 | 0.00 | 0.00 | 72 | 1014.5 |
| 20260506204520 | 46 | 127 | 3.0 | 7.0 | 0.00 | 0.00 | 0.00 | 71 | 1014.4 |
| 20260506204000 | 47 | 152 | 3.0 | 7.0 | 0.00 | 0.00 | 0.00 | 69 | 1014.4 |
| 20260506203503 | 47 | 108 | 3.0 | 7.0 | 0.00 | 0.00 | 0.00 | 68 | 1014.3 |